Location: El Mouella
(16.4949°N, 9.1594°W)
Time: 02:39:26
(UTC+00:00)

H-2A R/B - Pass Details

Date: 23 September 2020
Orbit: 734 x 836 km, 98.2° (Epoch: 20 October)

Event Time Altitude Azimuth Distance (km) Brightness Sun altitude
Exits shadow 19:53:54 23° 153° (SSE) 1,528 3.2 -20.5°
Maximum altitude 19:56:55 65° 77° (ENE) 811 1.8 -21.2°
Drops below altitude 10° 20:01:50 10° 356° (N) 2,271 4.6 -22.4°
Sets 20:04:10 0° 353° (N) 3,209 5.4 -23.0°
